Location: Pradons
(44.4746°N, 4.3578°E)
Time: 19:50:43
(UTC+00:00)

Cosmos 1703 - Pass Details

Date: 07 August 2020
Orbit: 523 x 541 km, 82.5° (Epoch: 01 October)

Event Time Altitude Azimuth Distance (km) Brightness Sun altitude
Rises 02:30:08 0° 6° (N) 2,711 7.8 -18.9°
Reaches altitude 10° 02:32:52 10° 26° (NNE) 1,813 7.1 -18.6°
Maximum altitude 02:35:39 18° 70° (ENE) 1,370 6.1 -18.3°
Drops below altitude 10° 02:38:25 10° 115° (ESE) 1,799 6.2 -17.9°
Sets 02:41:06 0° 135° (SE) 2,683 6.8 -17.6°
